| time (UTC) | temp F | wind direction | speed knots | gust knots | rain 1hr in | rain 24hr in | rain mn in | humidity % | barometer mb |
| 20260507075830 | 52 | 320 | 4.3 | 7.8 | 0.00 | 0.38 | 0.00 | 56 | 1010.2 |
| 20260507075329 | 53 | 315 | 4.3 | 15.6 | 0.00 | 0.38 | 0.00 | 56 | 1010.3 |
| 20260507074830 | 53 | 349 | 6.1 | 15.6 | 0.00 | 0.38 | 0.00 | 54 | 1010.2 |
| 20260507074351 | 53 | 355 | 7.0 | 13.9 | 0.00 | 0.38 | 0.00 | 57 | 1010.1 |
| 20260507073830 | 53 | 300 | 5.2 | 11.3 | 0.00 | 0.38 | 0.00 | 56 | 1010.4 |
| 20260507073332 | 53 | 36 | 3.5 | 11.3 | 0.00 | 0.38 | 0.00 | 57 | 1010.4 |
| 20260507072811 | 53 | 351 | 2.6 | 7.8 | 0.00 | 0.38 | 0.00 | 59 | 1010.3 |
| 20260507072311 | 53 | 355 | 0.9 | 6.1 | 0.00 | 0.38 | 0.00 | 60 | 1010.4 |
| 20260507071812 | 53 | 294 | 1.7 | 8.7 | 0.00 | 0.38 | 0.00 | 60 | 1010.4 |
| 20260507071313 | 53 | 317 | 2.6 | 8.7 | 0.00 | 0.38 | 0.00 | 59 | 1010.4 |
| 20260507070813 | 53 | 285 | 2.6 | 9.6 | 0.00 | 0.38 | 0.00 | 60 | 1010.4 |
| 20260507070312 | 53 | 331 | 4.3 | 9.6 | 0.00 | 0.38 | 0.00 | 60 | 1010.4 |
| 20260507065814 | 53 | 309 | 3.5 | 5.2 | 0.00 | 0.38 | 0.00 | 62 | 1010.5 |
| 20260507065315 | 53 | 313 | 3.5 | 11.3 | 0.00 | 0.38 | 0.00 | 62 | 1010.4 |
| 20260507064816 | 53 | 349 | 4.3 | 12.2 | 0.00 | 0.38 | 0.00 | 63 | 1010.4 |
| 20260507064315 | 53 | 266 | 4.3 | 12.2 | 0.00 | 0.38 | 0.00 | 63 | 1010.4 |
| 20260507063816 | 53 | 325 | 2.6 | 7.8 | 0.00 | 0.38 | 0.00 | 66 | 1010.3 |
| 20260507063316 | 53 | 348 | 4.3 | 10.4 | 0.00 | 0.38 | 0.00 | 68 | 1010.3 |
| 20260507062816 | 53 | 355 | 2.6 | 10.4 | 0.00 | 0.38 | 0.00 | 71 | 1010.4 |
| 20260507062315 | 53 | 348 | 4.3 | 8.7 | 0.00 | 0.38 | 0.00 | 71 | 1010.3 |
| 20260507061814 | 54 | 10 | 2.6 | 7.0 | 0.00 | 0.38 | 0.00 | 72 | 1010.4 |
| 20260507061316 | 54 | 323 | 2.6 | 7.0 | 0.00 | 0.38 | 0.00 | 74 | 1010.4 |
| 20260507060835 | 54 | 331 | 0.9 | 8.7 | 0.00 | 0.38 | 0.00 | 75 | 1010.4 |
| 20260507060313 | 54 | 348 | 2.6 | 8.7 | 0.00 | 0.38 | 0.00 | 76 | 1010.4 |
| 20260507055830 | 54 | 319 | 1.7 | 5.2 | 0.00 | 0.38 | 0.00 | 77 | 1010.4 |
| 20260507055351 | 54 | 336 | 0.0 | 5.2 | 0.00 | 0.38 | 0.00 | 79 | 1010.3 |
| 20260507054813 | 54 | 343 | 0.9 | 8.7 | 0.00 | 0.38 | 0.00 | 78 | 1010.3 |
| 20260507054312 | 54 | 336 | 3.5 | 8.7 | 0.00 | 0.38 | 0.00 | 79 | 1010.2 |
| 20260507053811 | 54 | 346 | 3.5 | 7.0 | 0.00 | 0.38 | 0.00 | 79 | 1010.2 |
| 20260507053311 | 54 | 305 | 2.6 | 7.0 | 0.00 | 0.38 | 0.00 | 80 | 1010.3 |
| 20260507052811 | 54 | 316 | 1.7 | 4.3 | 0.00 | 0.38 | 0.00 | 81 | 1010.2 |
| 20260507052312 | 54 | 110 | 0.0 | 1.7 | 0.00 | 0.38 | 0.00 | 81 | 1010.3 |
| 20260507051812 | 54 | 110 | 0.0 | 1.7 | 0.00 | 0.38 | 0.00 | 81 | 1010.3 |
| 20260507051312 | 54 | 56 | 0.0 | 1.7 | 0.00 | 0.38 | 0.00 | 81 | 1010.3 |
| 20260507050814 | 54 | 56 | 0.0 | 2.6 | 0.00 | 0.38 | 0.00 | 81 | 1010.5 |
| 20260507050316 | 54 | 15 | 0.0 | 3.5 | 0.00 | 0.38 | 0.00 | 81 | 1010.2 |
| 20260507045837 | 55 | 46 | 1.7 | 4.3 | 0.00 | 0.38 | 0.00 | 81 | 1010.1 |
| 20260507045337 | 55 | 44 | 1.7 | 4.3 | 0.00 | 0.38 | 0.00 | 81 | 1010.3 |
| 20260507044816 | 55 | 61 | 2.6 | 5.2 | 0.00 | 0.38 | 0.00 | 81 | 1010.3 |
| 20260507044315 | 55 | 344 | 2.6 | 5.2 | 0.00 | 0.38 | 0.00 | 81 | 1010.4 |
| 20260507043816 | 55 | 355 | 0.9 | 5.2 | 0.00 | 0.38 | 0.00 | 81 | 1010.6 |
| 20260507043333 | 55 | 360 | 2.6 | 5.2 | 0.00 | 0.38 | 0.00 | 81 | 1010.6 |
| 20260507042812 | 55 | 360 | 1.7 | 5.2 | 0.00 | 0.38 | 0.00 | 81 | 1010.3 |
| 20260507042333 | 55 | 5 | 2.6 | 8.7 | 0.00 | 0.38 | 0.00 | 80 | 1010.2 |
| 20260507041814 | 55 | 348 | 3.5 | 8.7 | 0.00 | 0.38 | 0.00 | 80 | 1010.1 |
| 20260507041312 | 55 | 350 | 4.3 | 7.8 | 0.00 | 0.38 | 0.00 | 80 | 1010.1 |
| 20260507040812 | 56 | 299 | 4.3 | 7.8 | 0.00 | 0.38 | 0.00 | 79 | 1010.1 |
| 20260507040331 | 56 | 18 | 4.3 | 7.0 | 0.00 | 0.38 | 0.00 | 78 | 1010.2 |
| 20260507035825 | 56 | 9 | 3.5 | 8.7 | 0.00 | 0.38 | 0.38 | 77 | 1010.2 |
| 20260507035324 | 56 | 333 | 5.2 | 8.7 | 0.00 | 0.38 | 0.38 | 77 | 1010.3 |
| 20260507034826 | 56 | 347 | 2.6 | 4.3 | 0.00 | 0.38 | 0.38 | 77 | 1010.3 |
| 20260507034327 | 56 | 342 | 1.7 | 2.6 | 0.00 | 0.38 | 0.38 | 77 | 1009.9 |
| 20260507033847 | 56 | 340 | 0.9 | 8.7 | 0.00 | 0.38 | 0.38 | 77 | 1010.2 |
| 20260507033327 | 56 | 306 | 0.9 | 8.7 | 0.00 | 0.38 | 0.38 | 77 | 1009.8 |
| 20260507032826 | 56 | 314 | 1.7 | 8.7 | 0.00 | 0.38 | 0.38 | 77 | 1009.9 |
| 20260507032328 | 56 | 293 | 4.3 | 12.2 | 0.00 | 0.38 | 0.38 | 77 | 1009.8 |
| 20260507031829 | 56 | 344 | 6.1 | 12.2 | 0.00 | 0.38 | 0.38 | 78 | 1009.5 |
| 20260507031310 | 56 | 317 | 4.3 | 9.6 | 0.00 | 0.38 | 0.38 | 78 | 1009.4 |
| 20260507030811 | 57 | 5 | 2.6 | 8.7 | 0.00 | 0.38 | 0.38 | 79 | 1009.5 |
| 20260507030313 | 57 | 302 | 1.7 | 9.6 | 0.00 | 0.38 | 0.38 | 78 | 1009.9 |
| 20260507025813 | 57 | 351 | 5.2 | 11.3 | 0.00 | 0.38 | 0.38 | 78 | 1009.7 |
| 20260507025314 | 57 | 290 | 3.5 | 12.2 | 0.00 | 0.38 | 0.38 | 78 | 1009.6 |
| 20260507024834 | 57 | 292 | 5.2 | 11.3 | 0.00 | 0.38 | 0.38 | 77 | 1009.4 |
| 20260507024312 | 57 | 322 | 6.1 | 11.3 | 0.00 | 0.38 | 0.38 | 77 | 1009.6 |
| 20260507023813 | 57 | 279 | 4.3 | 11.3 | 0.00 | 0.38 | 0.38 | 77 | 1009.6 |
| 20260507023314 | 57 | 337 | 2.6 | 13.9 | 0.00 | 0.38 | 0.38 | 78 | 1009.7 |
| 20260507022815 | 57 | 351 | 7.0 | 13.9 | 0.00 | 0.38 | 0.38 | 77 | 1009.6 |
| 20260507022315 | 57 | 14 | 4.3 | 13.0 | 0.00 | 0.38 | 0.38 | 77 | 1009.6 |
| 20260507021816 | 57 | 286 | 4.3 | 8.7 | 0.00 | 0.38 | 0.38 | 77 | 1009.5 |
| 20260507021335 | 58 | 349 | 0.9 | 8.7 | 0.00 | 0.38 | 0.38 | 78 | 1009.4 |
| 20260507020815 | 58 | 5 | 0.9 | 10.4 | 0.00 | 0.38 | 0.38 | 79 | 1009.4 |
| 20260507020335 | 58 | 264 | 5.2 | 10.4 | 0.00 | 0.38 | 0.38 | 79 | 1009.5 |
| 20260507015817 | 58 | 341 | 2.6 | 9.6 | 0.00 | 0.38 | 0.38 | 78 | 1009.5 |
| 20260507015339 | 58 | 306 | 1.7 | 9.6 | 0.00 | 0.38 | 0.38 | 78 | 1009.5 |
| 20260507014819 | 59 | 296 | 1.7 | 9.6 | 0.00 | 0.38 | 0.38 | 78 | 1009.5 |
| 20260507014320 | 59 | 275 | 2.6 | 7.0 | 0.00 | 0.38 | 0.38 | 78 | 1009.6 |
| 20260507013820 | 59 | 320 | 0.9 | 8.7 | 0.00 | 0.38 | 0.38 | 77 | 1009.6 |
| 20260507013320 | 59 | 313 | 2.6 | 8.7 | 0.00 | 0.38 | 0.38 | 77 | 1009.7 |
| 20260507012841 | 59 | 277 | 1.7 | 11.3 | 0.00 | 0.38 | 0.38 | 77 | 1009.7 |
| 20260507012321 | 59 | 243 | 2.6 | 11.3 | 0.00 | 0.38 | 0.38 | 77 | 1009.6 |
| 20260507011824 | 59 | 298 | 1.7 | 13.0 | 0.00 | 0.38 | 0.38 | 78 | 1009.7 |
| 20260507011324 | 59 | 288 | 4.3 | 13.0 | 0.00 | 0.38 | 0.38 | 77 | 1009.5 |
| 20260507010824 | 59 | 360 | 1.7 | 11.3 | 0.00 | 0.38 | 0.38 | 78 | 1009.5 |
| 20260507010324 | 60 | 306 | 3.5 | 11.3 | 0.00 | 0.38 | 0.38 | 78 | 1009.3 |
| 20260507005825 | 60 | 261 | 0.9 | 1.7 | 0.00 | 0.38 | 0.38 | 79 | 1009.2 |
| 20260507005324 | 60 | 326 | 0.0 | 2.6 | 0.00 | 0.38 | 0.38 | 79 | 1009.4 |
| 20260507004824 | 60 | 312 | 0.9 | 4.3 | 0.00 | 0.38 | 0.38 | 79 | 1009.2 |
| 20260507004323 | 60 | 296 | 0.9 | 2.6 | 0.00 | 0.38 | 0.38 | 79 | 1009.2 |
| 20260507003824 | 60 | 335 | 0.0 | 3.5 | 0.00 | 0.38 | 0.38 | 79 | 1009.0 |
| 20260507003324 | 60 | 256 | 0.9 | 5.2 | 0.00 | 0.38 | 0.38 | 79 | 1009.2 |
| 20260507002825 | 60 | 291 | 1.7 | 7.8 | 0.00 | 0.38 | 0.38 | 79 | 1009.0 |
| 20260507002325 | 60 | 323 | 1.7 | 7.8 | 0.00 | 0.38 | 0.38 | 79 | 1008.7 |
| 20260507001845 | 60 | 284 | 2.6 | 7.8 | 0.00 | 0.38 | 0.38 | 79 | 1008.5 |
| 20260507001324 | 60 | 299 | 3.5 | 7.8 | 0.00 | 0.38 | 0.38 | 80 | 1008.4 |
| 20260507000823 | 61 | 279 | 3.5 | 7.8 | 0.00 | 0.38 | 0.38 | 80 | 1008.3 |
| 20260507000323 | 61 | 355 | 1.7 | 9.6 | 0.00 | 0.38 | 0.38 | 81 | 1008.1 |
| 20260506235825 | 61 | 301 | 1.7 | 10.4 | 0.00 | 0.38 | 0.38 | 80 | 1007.9 |
| 20260506235326 | 61 | 296 | 3.5 | 10.4 | 0.00 | 0.38 | 0.38 | 81 | 1007.8 |
| 20260506234826 | 61 | 322 | 1.7 | 8.7 | 0.00 | 0.38 | 0.38 | 81 | 1007.7 |
| 20260506234347 | 61 | 259 | 1.7 | 8.7 | 0.00 | 0.38 | 0.38 | 81 | 1007.4 |
| 20260506233824 | 61 | 333 | 0.9 | 7.8 | 0.00 | 0.38 | 0.38 | 82 | 1007.5 |
| 20260506233324 | 61 | 313 | 1.7 | 7.8 | 0.00 | 0.38 | 0.38 | 82 | 1007.5 |
| 20260506232826 | 61 | 318 | 3.5 | 7.8 | 0.00 | 0.38 | 0.38 | 83 | 1007.3 |
| 20260506232326 | 61 | 286 | 2.6 | 7.0 | 0.00 | 0.38 | 0.38 | 83 | 1007.2 |
| 20260506231847 | 62 | 292 | 0.9 | 8.7 | 0.00 | 0.38 | 0.38 | 84 | 1007.2 |
| 20260506231327 | 62 | 343 | 2.6 | 8.7 | 0.00 | 0.38 | 0.38 | 84 | 1007.2 |
| 20260506230848 | 62 | 340 | 2.6 | 9.6 | 0.00 | 0.38 | 0.38 | 85 | 1007.3 |
| 20260506230325 | 62 | 338 | 4.3 | 9.6 | 0.01 | 0.38 | 0.38 | 85 | 1007.2 |
| 20260506225826 | 63 | 344 | 1.7 | 8.7 | 0.07 | 0.38 | 0.38 | 85 | 1007.1 |
| 20260506225325 | 63 | 301 | 3.5 | 8.7 | 0.07 | 0.38 | 0.38 | 86 | 1007.1 |
| 20260506224824 | 63 | 348 | 4.3 | 8.7 | 0.07 | 0.38 | 0.38 | 87 | 1006.9 |
| 20260506224324 | 64 | 298 | 1.7 | 10.4 | 0.07 | 0.38 | 0.38 | 88 | 1006.9 |
| 20260506223826 | 64 | 349 | 3.5 | 8.7 | 0.07 | 0.38 | 0.38 | 88 | 1006.7 |
| 20260506223347 | 64 | 312 | 1.7 | 4.3 | 0.07 | 0.38 | 0.38 | 88 | 1006.8 |
| 20260506222825 | 65 | 298 | 0.0 | 1.7 | 0.07 | 0.38 | 0.38 | 88 | 1006.7 |
| 20260506222324 | 65 | 342 | 0.0 | 2.6 | 0.07 | 0.38 | 0.38 | 88 | 1006.6 |
| 20260506221841 | 65 | 317 | 0.0 | 2.6 | 0.07 | 0.38 | 0.38 | 88 | 1006.5 |
| 20260506221342 | 65 | 283 | 0.0 | 2.6 | 0.07 | 0.38 | 0.38 | 87 | 1006.6 |
| 20260506220821 | 66 | 285 | 0.0 | 3.5 | 0.07 | 0.38 | 0.38 | 86 | 1006.6 |
| 20260506220321 | 66 | 279 | 0.9 | 4.3 | 0.03 | 0.34 | 0.34 | 85 | 1006.5 |
| 20260506215822 | 66 | 301 | 0.0 | 4.3 | 0.00 | 0.31 | 0.31 | 85 | 1006.3 |
| 20260506215323 | 66 | 271 | 1.7 | 7.0 | 0.00 | 0.31 | 0.31 | 84 | 1006.2 |
| 20260506214823 | 67 | 248 | 3.5 | 8.7 | 0.00 | 0.31 | 0.31 | 84 | 1006.1 |
| 20260506214343 | 67 | 215 | 4.3 | 8.7 | 0.00 | 0.31 | 0.31 | 83 | 1006.1 |
| 20260506213824 | 67 | 221 | 2.6 | 6.1 | 0.00 | 0.31 | 0.31 | 83 | 1006.0 |
| 20260506213324 | 67 | 291 | 1.7 | 4.3 | 0.00 | 0.31 | 0.31 | 82 | 1005.9 |
| 20260506212825 | 68 | 253 | 1.7 | 4.3 | 0.00 | 0.31 | 0.31 | 83 | 1005.8 |
| 20260506212326 | 68 | 239 | 1.7 | 4.3 | 0.00 | 0.31 | 0.31 | 83 | 1005.7 |
| 20260506211827 | 68 | 225 | 1.7 | 4.3 | 0.00 | 0.31 | 0.31 | 84 | 1005.6 |
| 20260506211349 | 68 | 233 | 1.7 | 3.5 | 0.00 | 0.31 | 0.31 | 83 | 1005.6 |
| 20260506210828 | 68 | 250 | 0.0 | 6.1 | 0.00 | 0.31 | 0.31 | 83 | 1005.5 |
| 20260506210326 | 68 | 279 | 0.0 | 6.1 | 0.00 | 0.31 | 0.31 | 84 | 1005.5 |
| 20260506205828 | 67 | 267 | 0.9 | 6.1 | 0.00 | 0.31 | 0.31 | 83 | 1005.6 |
| 20260506205327 | 67 | 230 | 3.5 | 6.1 | 0.00 | 0.31 | 0.31 | 83 | 1005.6 |
| 20260506204828 | 67 | 232 | 2.6 | 6.1 | 0.00 | 0.31 | 0.31 | 83 | 1005.6 |
| 20260506204328 | 67 | 194 | 3.5 | 7.0 | 0.00 | 0.31 | 0.31 | 83 | 1005.7 |
| 20260506203850 | 67 | 220 | 4.3 | 7.0 | 0.00 | 0.31 | 0.31 | 83 | 1005.6 |
| 20260506203329 | 67 | 236 | 2.6 | 6.1 | 0.00 | 0.31 | 0.31 | 83 | 1005.6 |
| 20260506202811 | 67 | 268 | 1.7 | 7.0 | 0.00 | 0.31 | 0.31 | 83 | 1005.6 |
| 20260506202330 | 67 | 241 | 3.5 | 7.0 | 0.00 | 0.31 | 0.31 | 83 | 1005.5 |
| 20260506201829 | 67 | 234 | 2.6 | 7.0 | 0.00 | 0.31 | 0.31 | 84 | 1005.5 |
| 20260506201350 | 67 | 237 | 3.5 | 7.0 | 0.00 | 0.31 | 0.31 | 84 | 1005.4 |
| 20260506200828 | 67 | 269 | 1.7 | 8.7 | 0.00 | 0.31 | 0.31 | 85 | 1005.4 |
| 20260506200329 | 67 | 216 | 3.5 | 8.7 | 0.00 | 0.31 | 0.31 | 85 | 1005.5 |
| 20260506195849 | 67 | 215 | 4.3 | 8.7 | 0.00 | 0.31 | 0.31 | 86 | 1005.5 |
| 20260506195327 | 66 | 234 | 2.6 | 8.7 | 0.00 | 0.31 | 0.31 | 86 | 1005.5 |
| 20260506194826 | 66 | 198 | 3.5 | 7.8 | 0.00 | 0.31 | 0.31 | 87 | 1005.6 |
| 20260506194326 | 65 | 225 | 5.2 | 7.0 | 0.00 | 0.31 | 0.31 | 87 | 1005.7 |
| 20260506193826 | 65 | 286 | 2.6 | 8.7 | 0.00 | 0.31 | 0.31 | 87 | 1005.8 |
| 20260506193324 | 65 | 214 | 2.6 | 8.7 | 0.00 | 0.31 | 0.31 | 87 | 1005.9 |
| 20260506192824 | 65 | 243 | 3.5 | 5.2 | 0.00 | 0.31 | 0.31 | 88 | 1006.0 |
| 20260506192326 | 65 | 216 | 1.7 | 7.8 | 0.00 | 0.31 | 0.31 | 88 | 1006.0 |
| 20260506191823 | 64 | 226 | 3.5 | 7.8 | 0.00 | 0.31 | 0.31 | 88 | 1006.0 |
| 20260506191323 | 64 | 220 | 2.6 | 7.0 | 0.00 | 0.31 | 0.31 | 88 | 1006.0 |
| 20260506190823 | 64 | 242 | 3.5 | 7.0 | 0.00 | 0.31 | 0.31 | 88 | 1006.1 |
| 20260506190322 | 64 | 225 | 3.5 | 7.0 | 0.00 | 0.31 | 0.31 | 88 | 1006.0 |
| 20260506185823 | 64 | 189 | 3.5 | 7.8 | 0.00 | 0.31 | 0.31 | 88 | 1006.0 |
| 20260506185322 | 64 | 215 | 3.5 | 6.1 | 0.00 | 0.31 | 0.31 | 89 | 1006.1 |
| 20260506184823 | 64 | 203 | 2.6 | 7.8 | 0.00 | 0.31 | 0.31 | 89 | 1006.1 |
| 20260506184325 | 64 | 231 | 3.5 | 5.2 | 0.00 | 0.31 | 0.31 | 89 | 1006.2 |
| 20260506183845 | 63 | 246 | 2.6 | 4.3 | 0.00 | 0.31 | 0.31 | 90 | 1006.2 |
| 20260506183324 | 63 | 207 | 2.6 | 5.2 | 0.00 | 0.31 | 0.31 | 90 | 1006.3 |
| 20260506182824 | 63 | 226 | 3.5 | 8.7 | 0.00 | 0.31 | 0.31 | 90 | 1006.3 |
| 20260506182344 | 63 | 225 | 2.6 | 8.7 | 0.00 | 0.31 | 0.31 | 90 | 1006.3 |
| 20260506181823 | 63 | 227 | 2.6 | 6.1 | 0.00 | 0.31 | 0.31 | 90 | 1006.2 |
| 20260506181324 | 62 | 213 | 1.7 | 9.6 | 0.00 | 0.31 | 0.31 | 90 | 1006.3 |
| 20260506180843 | 62 | 232 | 3.5 | 9.6 | 0.01 | 0.31 | 0.31 | 90 | 1006.4 |
| 20260506180322 | 62 | 216 | 4.3 | 7.8 | 0.01 | 0.31 | 0.31 | 90 | 1006.5 |
| 20260506175824 | 62 | 256 | 2.6 | 7.8 | 0.01 | 0.31 | 0.31 | 90 | 1006.4 |
| 20260506175324 | 62 | 217 | 4.3 | 8.7 | 0.01 | 0.31 | 0.31 | 90 | 1006.4 |
| 20260506174824 | 62 | 196 | 4.3 | 8.7 | 0.01 | 0.31 | 0.31 | 90 | 1006.4 |
| 20260506174345 | 62 | 219 | 1.7 | 7.8 | 0.01 | 0.31 | 0.31 | 90 | 1006.4 |
| 20260506173824 | 62 | 225 | 2.6 | 7.8 | 0.01 | 0.31 | 0.31 | 90 | 1006.4 |
| 20260506173338 | 62 | 240 | 2.6 | 8.7 | 0.01 | 0.31 | 0.31 | 90 | 1006.5 |
| 20260506172817 | 62 | 223 | 3.5 | 8.7 | 0.01 | 0.31 | 0.31 | 90 | 1006.4 |
| 20260506172318 | 62 | 229 | 3.5 | 7.8 | 0.01 | 0.31 | 0.31 | 89 | 1006.5 |
| 20260506171818 | 62 | 220 | 2.6 | 7.0 | 0.01 | 0.31 | 0.31 | 89 | 1006.5 |
| 20260506171317 | 62 | 241 | 2.6 | 7.8 | 0.01 | 0.31 | 0.31 | 89 | 1006.5 |
| 20260506170816 | 62 | 269 | 3.5 | 7.8 | 0.00 | 0.30 | 0.30 | 89 | 1006.5 |
| 20260506170315 | 62 | 223 | 2.6 | 7.0 | 0.00 | 0.30 | 0.30 | 89 | 1006.6 |
| 20260506165814 | 62 | 224 | 1.7 | 7.0 | 0.00 | 0.30 | 0.30 | 89 | 1006.6 |
| 20260506165314 | 62 | 219 | 0.9 | 6.1 | 0.00 | 0.30 | 0.30 | 89 | 1006.6 |
| 20260506164836 | 62 | 234 | 1.7 | 6.1 | 0.00 | 0.30 | 0.30 | 89 | 1006.6 |
| 20260506164336 | 62 | 213 | 3.5 | 7.0 | 0.00 | 0.30 | 0.30 | 89 | 1006.5 |
| 20260506163813 | 62 | 200 | 4.3 | 7.0 | 0.00 | 0.30 | 0.30 | 89 | 1006.6 |
| 20260506163314 | 62 | 223 | 2.6 | 8.7 | 0.00 | 0.30 | 0.30 | 89 | 1006.6 |
| 20260506162815 | 62 | 202 | 3.5 | 10.4 | 0.00 | 0.30 | 0.30 | 89 | 1006.6 |
| 20260506162315 | 61 | 211 | 4.3 | 10.4 | 0.00 | 0.30 | 0.30 | 90 | 1006.7 |
| 20260506161817 | 61 | 230 | 3.5 | 5.2 | 0.00 | 0.30 | 0.30 | 90 | 1006.7 |
| 20260506161317 | 61 | 221 | 3.5 | 5.2 | 0.00 | 0.30 | 0.30 | 90 | 1006.7 |
| 20260506160816 | 61 | 213 | 1.7 | 8.7 | 0.00 | 0.30 | 0.30 | 90 | 1006.6 |
| 20260506160316 | 61 | 159 | 4.3 | 8.7 | 0.01 | 0.30 | 0.30 | 90 | 1006.6 |
| 20260506155816 | 61 | 189 | 3.5 | 9.6 | 0.02 | 0.30 | 0.30 | 90 | 1006.6 |
| 20260506155338 | 61 | 250 | 5.2 | 9.6 | 0.03 | 0.30 | 0.30 | 90 | 1006.7 |
| 20260506154818 | 61 | 221 | 3.5 | 7.0 | 0.04 | 0.30 | 0.30 | 90 | 1006.7 |
| 20260506154339 | 61 | 239 | 1.7 | 7.8 | 0.06 | 0.30 | 0.30 | 90 | 1006.7 |
| 20260506153818 | 61 | 225 | 3.5 | 7.8 | 0.07 | 0.30 | 0.30 | 90 | 1006.6 |
| 20260506153339 | 61 | 214 | 3.5 | 7.0 | 0.08 | 0.30 | 0.30 | 90 | 1006.5 |
| 20260506152820 | 61 | 180 | 3.5 | 13.0 | 0.09 | 0.30 | 0.30 | 90 | 1006.5 |
| 20260506152319 | 61 | 213 | 6.1 | 13.0 | 0.12 | 0.30 | 0.30 | 90 | 1006.4 |
| 20260506151840 | 61 | 209 | 3.5 | 6.1 | 0.14 | 0.30 | 0.30 | 90 | 1006.6 |
| 20260506151312 | 61 | 188 | 2.6 | 6.1 | 0.16 | 0.30 | 0.30 | 90 | 1006.5 |
| 20260506150812 | 61 | 198 | 3.5 | 6.1 | 0.16 | 0.30 | 0.30 | 90 | 1006.7 |
| 20260506150311 | 61 | 199 | 3.5 | 6.1 | 0.16 | 0.29 | 0.29 | 90 | 1006.6 |
| 20260506145812 | 61 | 185 | 3.5 | 7.0 | 0.15 | 0.28 | 0.28 | 89 | 1006.7 |
| 20260506145331 | 61 | 148 | 3.5 | 7.0 | 0.14 | 0.27 | 0.27 | 89 | 1006.8 |
| 20260506144826 | 61 | 171 | 3.5 | 7.8 | 0.14 | 0.26 | 0.26 | 89 | 1006.8 |
| 20260506144323 | 61 | 159 | 2.6 | 12.2 | 0.12 | 0.24 | 0.25 | 89 | 1007.0 |
| 20260506143824 | 61 | 192 | 6.1 | 13.0 | 0.12 | 0.23 | 0.23 | 89 | 1007.2 |
| 20260506143325 | 61 | 192 | 5.2 | 13.0 | 0.12 | 0.22 | 0.22 | 89 | 1007.3 |
| 20260506142825 | 61 | 225 | 7.8 | 13.0 | 0.12 | 0.21 | 0.21 | 89 | 1007.4 |
| 20260506142324 | 61 | 198 | 6.1 | 10.4 | 0.10 | 0.18 | 0.18 | 89 | 1007.5 |
| 20260506141825 | 61 | 221 | 5.2 | 8.7 | 0.09 | 0.16 | 0.16 | 89 | 1007.4 |
| 20260506141325 | 61 | 207 | 4.3 | 7.8 | 0.08 | 0.14 | 0.14 | 88 | 1007.3 |
| 20260506140827 | 61 | 207 | 4.3 | 7.8 | 0.08 | 0.14 | 0.14 | 88 | 1007.1 |
| 20260506140327 | 61 | 207 | 3.5 | 10.4 | 0.08 | 0.13 | 0.13 | 88 | 1007.0 |
| 20260506135847 | 61 | 164 | 6.1 | 10.4 | 0.08 | 0.13 | 0.13 | 88 | 1006.9 |
| 20260506135325 | 61 | 207 | 2.6 | 7.0 | 0.08 | 0.13 | 0.13 | 88 | 1006.8 |
| 20260506134847 | 61 | 213 | 3.5 | 7.0 | 0.07 | 0.12 | 0.12 | 88 | 1006.8 |
| 20260506134327 | 61 | 194 | 1.7 | 5.2 | 0.07 | 0.12 | 0.12 | 88 | 1006.9 |
| 20260506133828 | 61 | 203 | 1.7 | 7.8 | 0.06 | 0.11 | 0.11 | 88 | 1006.9 |
| 20260506133328 | 61 | 171 | 3.5 | 7.8 | 0.04 | 0.09 | 0.09 | 87 | 1006.9 |
| 20260506132827 | 61 | 176 | 3.5 | 7.8 | 0.03 | 0.08 | 0.08 | 87 | 1006.8 |
| 20260506132330 | 62 | 198 | 2.6 | 7.8 | 0.02 | 0.07 | 0.07 | 87 | 1007.0 |
| 20260506131811 | 62 | 211 | 3.5 | 8.7 | 0.03 | 0.07 | 0.07 | 86 | 1007.1 |
| 20260506131312 | 62 | 220 | 3.5 | 7.0 | 0.02 | 0.06 | 0.06 | 86 | 1007.1 |
| 20260506130811 | 62 | 202 | 3.5 | 6.1 | 0.03 | 0.06 | 0.06 | 86 | 1007.1 |
| 20260506130311 | 62 | 175 | 2.6 | 8.7 | 0.02 | 0.05 | 0.05 | 86 | 1007.0 |
| 20260506125812 | 62 | 207 | 3.5 | 8.7 | 0.03 | 0.05 | 0.05 | 86 | 1006.9 |
| 20260506125311 | 62 | 194 | 2.6 | 7.8 | 0.03 | 0.05 | 0.05 | 86 | 1006.9 |
| 20260506124811 | 62 | 194 | 3.5 | 7.8 | 0.04 | 0.05 | 0.05 | 86 | 1006.9 |
| 20260506124331 | 62 | 238 | 3.5 | 7.8 | 0.04 | 0.05 | 0.05 | 85 | 1007.1 |
| 20260506123848 | 62 | 203 | 3.5 | 7.8 | 0.04 | 0.05 | 0.05 | 85 | 1007.0 |
| 20260506123325 | 62 | 215 | 2.6 | 7.8 | 0.04 | 0.05 | 0.05 | 85 | 1007.1 |
| 20260506122824 | 62 | 217 | 3.5 | 10.4 | 0.05 | 0.05 | 0.05 | 84 | 1007.1 |
| 20260506122345 | 62 | 200 | 4.3 | 10.4 | 0.04 | 0.04 | 0.04 | 84 | 1007.3 |
| 20260506121825 | 62 | 191 | 4.3 | 9.6 | 0.04 | 0.04 | 0.04 | 84 | 1007.4 |
| 20260506121326 | 62 | 184 | 4.3 | 9.6 | 0.04 | 0.04 | 0.04 | 83 | 1007.5 |
| 20260506120823 | 62 | 198 | 4.3 | 7.8 | 0.03 | 0.03 | 0.03 | 83 | 1007.4 |
| 20260506120324 | 62 | 196 | 5.2 | 8.7 | 0.03 | 0.03 | 0.03 | 82 | 1007.6 |
| 20260506115824 | 63 | 200 | 3.5 | 9.6 | 0.02 | 0.02 | 0.02 | 81 | 1007.6 |
| 20260506115325 | 63 | 236 | 6.1 | 9.6 | 0.02 | 0.02 | 0.02 | 80 | 1007.6 |
| 20260506114823 | 63 | 183 | 6.1 | 10.4 | 0.01 | 0.01 | 0.01 | 79 | 1007.5 |
| 20260506114322 | 64 | 224 | 6.1 | 10.4 | 0.01 | 0.01 | 0.01 | 78 | 1007.4 |
| 20260506113823 | 64 | 255 | 3.5 | 7.0 | 0.01 | 0.01 | 0.01 | 76 | 1007.3 |
| 20260506113346 | 64 | 224 | 3.5 | 7.8 | 0.01 | 0.01 | 0.01 | 75 | 1007.1 |
| 20260506112825 | 64 | 200 | 3.5 | 8.7 | 0.00 | 0.00 | 0.00 | 74 | 1007.0 |
| 20260506112324 | 65 | 201 | 5.2 | 7.8 | 0.00 | 0.00 | 0.00 | 72 | 1006.9 |
| 20260506111846 | 65 | 181 | 4.3 | 8.7 | 0.00 | 0.00 | 0.00 | 71 | 1006.9 |
| 20260506111325 | 65 | 184 | 4.3 | 7.0 | 0.00 | 0.00 | 0.00 | 70 | 1007.0 |
| 20260506110827 | 65 | 221 | 2.6 | 5.2 | 0.00 | 0.00 | 0.00 | 70 | 1006.8 |
| 20260506110324 | 66 | 192 | 2.6 | 9.6 | 0.00 | 0.00 | 0.00 | 69 | 1006.7 |
| 20260506105825 | 66 | 201 | 3.5 | 13.0 | 0.00 | 0.00 | 0.00 | 68 | 1006.9 |
| 20260506105324 | 67 | 225 | 5.2 | 13.0 | 0.00 | 0.00 | 0.00 | 66 | 1006.7 |
| 20260506104823 | 67 | 198 | 2.6 | 7.0 | 0.00 | 0.00 | 0.00 | 64 | 1006.7 |
| 20260506104323 | 67 | 207 | 4.3 | 7.8 | 0.00 | 0.00 | 0.00 | 63 | 1006.6 |
| 20260506103824 | 67 | 219 | 4.3 | 9.6 | 0.00 | 0.00 | 0.00 | 63 | 1006.6 |
| 20260506103345 | 67 | 236 | 6.1 | 9.6 | 0.00 | 0.00 | 0.00 | 63 | 1006.5 |
| 20260506102825 | 67 | 204 | 6.1 | 10.4 | 0.00 | 0.00 | 0.00 | 62 | 1006.4 |
| 20260506102326 | 67 | 236 | 4.3 | 8.7 | 0.00 | 0.00 | 0.00 | 62 | 1006.4 |
| 20260506101826 | 67 | 162 | 3.5 | 7.8 | 0.00 | 0.00 | 0.00 | 62 | 1006.3 |
| 20260506101327 | 67 | 215 | 1.7 | 10.4 | 0.00 | 0.00 | 0.00 | 62 | 1006.3 |
| 20260506100827 | 67 | 240 | 4.3 | 10.4 | 0.00 | 0.00 | 0.00 | 61 | 1006.3 |
| 20260506100326 | 67 | 197 | 2.6 | 7.8 | 0.00 | 0.00 | 0.00 | 61 | 1006.2 |
| 20260506095848 | 68 | 191 | 4.3 | 10.4 | 0.00 | 0.00 | 0.00 | 61 | 1006.2 |
| 20260506095326 | 68 | 230 | 4.3 | 10.4 | 0.00 | 0.00 | 0.00 | 60 | 1006.1 |
| 20260506094825 | 68 | 232 | 2.6 | 10.4 | 0.00 | 0.00 | 0.00 | 60 | 1006.0 |
| 20260506094328 | 68 | 219 | 6.1 | 10.4 | 0.00 | 0.00 | 0.00 | 60 | 1005.9 |
| 20260506093827 | 68 | 205 | 3.5 | 9.6 | 0.00 | 0.00 | 0.00 | 60 | 1006.0 |
| 20260506093326 | 68 | 217 | 3.5 | 14.8 | 0.00 | 0.00 | 0.00 | 59 | 1006.1 |
| 20260506092849 | 68 | 188 | 7.8 | 14.8 | 0.00 | 0.00 | 0.00 | 59 | 1006.1 |
| 20260506092328 | 68 | 239 | 5.2 | 10.4 | 0.00 | 0.00 | 0.00 | 59 | 1006.2 |
| 20260506091829 | 68 | 241 | 4.3 | 13.9 | 0.00 | 0.00 | 0.00 | 58 | 1006.3 |
| 20260506091351 | 68 | 216 | 6.1 | 13.0 | 0.00 | 0.00 | 0.00 | 58 | 1006.3 |
| 20260506090851 | 68 | 211 | 4.3 | 13.9 | 0.00 | 0.00 | 0.00 | 58 | 1006.2 |
| 20260506090330 | 69 | 211 | 7.8 | 13.9 | 0.00 | 0.00 | 0.00 | 57 | 1006.3 |
| 20260506085851 | 69 | 228 | 4.3 | 13.0 | 0.00 | 0.00 | 0.00 | 57 | 1006.3 |
| 20260506085330 | 69 | 211 | 6.1 | 12.2 | 0.00 | 0.00 | 0.00 | 57 | 1006.5 |
| 20260506084828 | 69 | 219 | 4.3 | 8.7 | 0.00 | 0.00 | 0.00 | 57 | 1006.4 |
| 20260506084345 | 69 | 234 | 4.3 | 12.2 | 0.00 | 0.00 | 0.00 | 57 | 1006.4 |
| 20260506083822 | 69 | 233 | 7.0 | 13.0 | 0.00 | 0.00 | 0.00 | 57 | 1006.4 |
| 20260506083324 | 69 | 241 | 6.1 | 12.2 | 0.00 | 0.00 | 0.00 | 57 | 1006.5 |
| 20260506082827 | 69 | 175 | 5.2 | 11.3 | 0.00 | 0.00 | 0.00 | 56 | 1006.4 |
| 20260506082327 | 69 | 241 | 6.1 | 9.6 | 0.00 | 0.00 | 0.00 | 56 | 1006.4 |
| 20260506081826 | 69 | 238 | 4.3 | 9.6 | 0.00 | 0.00 | 0.00 | 56 | 1006.4 |
| 20260506081326 | 69 | 242 | 4.3 | 9.6 | 0.00 | 0.00 | 0.00 | 56 | 1006.4 |
| 20260506080826 | 69 | 234 | 2.6 | 11.3 | 0.00 | 0.00 | 0.00 | 55 | 1006.4 |
| 20260506080347 | 69 | 253 | 6.1 | 11.3 | 0.00 | 0.00 | 0.00 | 55 | 1006.3 |